Regional Weather Roundup
Issued by NWS Kansas City/Pleasant Hill, MO

Home | Current Version | Previous Version | Text Only | Print | Product List | Glossary On
Versions: 1 2 3 4 5 6 7 8 9 10 11 12 13 14 15 16 17 18 19 20 21 22 23 24 25 26 27
000
ASUS43 KEAX 281610
RWREAX

WEATHER ROUNDUP FOR EASTERN KANSAS AND NORTHWEST MISSOURI
NATIONAL WEATHER SERVICE KANSAS CITY/PLEASANT HILL MO
1100 AM CDT FRI JUL 28 2017

KSZ040-057-103>105-MOZ028-029-037-043-281700-
...KANSAS CITY METROPOLITAN AREA...

CITY           SKY/WX    TMP DP  RH WIND       PRES   REMARKS
K.C. INTL      PTSUNNY   81  69  67 NE12      30.03R
K.C. DOWNTOWN  NOT AVBL
LEES SUMMIT    PTSUNNY   79  72  79 NE9       30.02R
OLATHE - IXD   MOSUNNY   82  70  66 NE8       30.02R
OLATHE - OJC   SUNNY     80  71  74 NE9       30.01R
LAWRENCE       PTSUNNY   81  72  74 NE7       30.01S

$$

MOZ001>008-011>017-020>025-030>033-038>040-044>046-053-054-281700-
...NORTHERN AND CENTRAL MISSOURI...

CITY           SKY/WX    TMP DP  RH WIND       PRES   REMARKS
ST. JOSEPH     MOSUNNY   81  67  62 E8        30.03S
MOSBY          PTSUNNY   77  63  61 NE7       30.02S
WARRENSBURG    MOSUNNY   79  70  73 NE8       30.00S
WHITEMAN AFB   PTSUNNY   79  71  77 NE9       29.99S
CLINTON        MOSUNNY   81  73  78 NE9       29.99S
SEDALIA        MOSUNNY   81  71  71 NE9       30.01S
WARSAW         NOT AVBL
CHILLICOTHE      N/A     81  66  60 NE9       30.04S
KIRKSVILLE     SUNNY     81  56  42 NE12      30.04S

$$

MOZ041-047>049-056>058-063>065-088>090-097-281700-
...EASTERN AND SOUTHERN MISSOURI...

CITY           SKY/WX    TMP DP  RH WIND       PRES   REMARKS
ST. LOUIS INTL MOSUNNY   81  65  58 N13       29.94F
SPIRIT OF STL  SUNNY     82  66  58 NE12G21   29.93S
COLUMBIA       SUNNY     80  63  55 NE9       29.99S
JEFFERSON CITY SUNNY     81  64  56 VRB6      29.97S
ROLLA          MOSUNNY   80  69  69 N12       29.98S
OSAGE BEACH    MOSUNNY   81  72  74 NE7       29.97F
SPRINGFIELD    PTSUNNY   83  71  67 N12       29.96S
BRANSON        CLOUDY    77  75  94 N5        29.97R
JOPLIN         PTSUNNY   86  77  74 NE6       29.96S HX  97
WEST PLAINS    PTSUNNY   83  71  67 NE10G17   29.95F

$$

IAZ060-094-KSZ022-034>040-054-083-096-NEZ052-066-093-281700-
...KANSAS...SOUTHEAST NEBRASKA AND IOWA...

CITY           SKY/WX    TMP DP  RH WIND       PRES   REMARKS
TOPEKA         SUNNY     81  73  76 NE7       30.01S
MANHATTAN      SUNNY     80  69  69 E5        30.01F
EMPORIA        SUNNY     83  69  62 NE7       30.00S
CHANUTE        SUNNY     85  71  63 E8        29.98S HX  90
WICHITA        MOSUNNY   84  71  65 NE7       30.00S
OMAHA          CLOUDY    78  67  68 CALM      30.07R
LINCOLN        SUNNY     79  64  60 E9        30.07S
LAMONI         MOSUNNY   79  64  60 VRB5      30.06R
DES MOINES     CLOUDY    78  58  49 E6        30.05S

$$





USA.gov is the U.S. government's official web portal to all federal, state and local government web resources and services.